DW6722 Weather Reports


time (UTC)temp
C
wind
direction
speed
KPH
gust
KPH
rain 1hr
cm
rain 24hr
cm
rain mn
cm
humidity
%
barometer
mb
20260505224513 10 356 16.1 20.9 0.00 0.05 0.00 74 1009.7
20260505224012 10 1 14.5 25.7 0.00 0.05 0.00 74 1009.7
20260505223511 10 13 16.1 25.7 0.00 0.05 0.00 74 1009.8
20260505223011 10 1 16.1 24.1 0.00 0.05 0.00 74 1009.8
20260505222513 10 339 17.7 24.1 0.00 0.05 0.00 74 1009.8
20260505222009 10 342 16.1 22.5 0.00 0.05 0.00 75 1009.8
20260505221509 10 8 17.7 24.1 0.00 0.05 0.00 74 1009.9
20260505221009 10 8 16.1 24.1 0.00 0.05 0.00 74 1009.9
20260505220506 10 15 12.9 24.1 0.00 0.05 0.00 74 1009.9
20260505220006 10 1 19.3 25.7 0.00 0.05 0.05 74 1009.9
20260505215507 10 325 16.1 25.7 0.00 0.05 0.05 75 1009.9
20260505215005 10 358 14.5 22.5 0.00 0.05 0.05 75 1010.0
20260505214506 10 5 16.1 22.5 0.00 0.05 0.05 75 1010.0
20260505214006 10 348 14.5 27.4 0.00 0.05 0.05 75 1010.0
20260505213506 10 338 17.7 27.4 0.00 0.05 0.05 75 1010.0
20260505213012 10 326 17.7 24.1 0.00 0.05 0.05 75 1010.0
20260505212506 10 332 16.1 24.1 0.00 0.05 0.05 76 1010.0
20260505212004 10 347 17.7 25.7 0.00 0.05 0.05 75 1010.0
20260505211503 10 3 16.1 27.4 0.00 0.05 0.05 75 1009.9
20260505211003 10 336 16.1 27.4 0.00 0.05 0.05 76 1010.0
20260505210503 10 5 17.7 24.1 0.00 0.05 0.05 75 1010.0
20260505210003 10 352 14.5 27.4 0.00 0.05 0.05 75 1010.0
20260505205502 10 1 19.3 27.4 0.00 0.05 0.05 75 1010.0
20260505205001 10 355 16.1 27.4 0.00 0.05 0.05 75 1010.0
20260505204501 10 340 19.3 27.4 0.00 0.05 0.05 75 1010.0
20260505204003 10 343 19.3 27.4 0.00 0.05 0.05 75 1010.1
20260505203502 10 351 19.3 29.0 0.00 0.05 0.05 75 1010.0
20260505203002 10 354 20.9 30.6 0.00 0.05 0.05 75 1010.1
20260505202502 10 359 22.5 30.6 0.00 0.05 0.05 75 1010.1
20260505202002 11 333 19.3 32.2 0.00 0.05 0.05 74 1010.1
20260505201600 11 323 22.5 32.2 0.00 0.05 0.05 74 1010.1
20260505201100 11 333 20.9 30.6 0.00 0.05 0.05 75 1010.1
20260505200601 11 354 20.9 33.8 0.00 0.05 0.05 75 1010.1
20260505200059 11 337 24.1 33.8 0.00 0.05 0.05 74 1010.1
20260505195601 11 344 19.3 27.4 0.00 0.05 0.05 74 1010.0
20260505195059 11 330 17.7 27.4 0.00 0.05 0.05 74 1010.0
20260505194559 11 337 19.3 27.4 0.00 0.05 0.05 74 1010.0
20260505194059 11 351 17.7 30.6 0.00 0.05 0.05 74 1009.9
20260505193558 11 360 22.5 30.6 0.00 0.05 0.05 73 1009.8
20260505193059 11 355 19.3 32.2 0.00 0.05 0.05 74 1009.8
20260505192600 11 351 22.5 32.2 0.00 0.05 0.05 73 1009.7
20260505192100 11 320 19.3 29.0 0.00 0.05 0.05 74 1009.7
20260505191607 11 328 20.9 32.2 0.00 0.05 0.05 74 1009.7
20260505191101 11 351 20.9 35.4 0.00 0.05 0.05 73 1009.6
20260505190558 11 352 24.1 35.4 0.00 0.05 0.05 73 1009.5
20260505190104 11 337 24.1 32.2 0.00 0.05 0.05 73 1009.4
20260505185557 11 1 20.9 33.8 0.00 0.05 0.05 73 1009.4
20260505185057 11 327 22.5 32.2 0.00 0.05 0.05 73 1009.4
20260505184602 11 357 19.3 29.0 0.00 0.05 0.05 73 1009.4
20260505184155 11 347 19.3 30.6 0.00 0.05 0.05 73 1009.3
20260505183555 11 347 24.1 32.2 0.00 0.05 0.05 72 1009.3
20260505183119 12 326 22.5 30.6 0.00 0.05 0.05 71 1009.3
20260505182555 12 338 17.7 32.2 0.00 0.05 0.05 72 1009.3
20260505182056 12 338 24.1 33.8 0.00 0.05 0.05 71 1009.3
20260505181555 12 352 25.7 33.8 0.00 0.05 0.05 70 1009.2
20260505181059 12 358 24.1 32.2 0.00 0.05 0.05 70 1009.2
20260505180554 12 342 24.1 32.2 0.00 0.05 0.05 70 1009.1
20260505180054 12 341 22.5 33.8 0.00 0.05 0.05 71 1009.1
20260505175554 12 330 25.7 37.0 0.00 0.05 0.05 69 1009.1
20260505175054 12 340 29.0 37.0 0.00 0.05 0.05 70 1009.1
20260505174553 12 347 29.0 37.0 0.00 0.05 0.05 69 1009.0
20260505174054 12 345 24.1 35.4 0.00 0.05 0.05 70 1009.1
20260505173554 12 330 27.4 35.4 0.00 0.05 0.05 69 1009.1
20260505173057 12 337 24.1 33.8 0.00 0.05 0.05 69 1009.1
20260505172554 12 326 20.9 35.4 0.00 0.05 0.05 70 1009.1
20260505172052 12 340 25.7 35.4 0.00 0.05 0.05 69 1009.1
20260505171559 12 359 27.4 35.4 0.00 0.05 0.05 69 1009.1
20260505171051 12 352 29.0 35.4 0.00 0.05 0.05 70 1009.1
20260505170550 12 354 24.1 32.2 0.00 0.05 0.05 70 1009.2
20260505170050 12 326 19.3 30.6 0.00 0.05 0.05 70 1009.2
20260505165553 13 328 25.7 30.6 0.00 0.05 0.05 69 1009.2
20260505165049 13 1 22.5 29.0 0.00 0.05 0.05 69 1009.2
20260505164550 13 350 22.5 29.0 0.00 0.05 0.05 69 1009.3
20260505164048 13 358 22.5 29.0 0.00 0.05 0.05 69 1009.3
20260505163547 13 345 17.7 25.7 0.00 0.05 0.05 71 1009.3
20260505163047 13 341 17.7 27.4 0.00 0.05 0.05 70 1009.4
20260505162548 12 6 20.9 27.4 0.00 0.05 0.05 71 1009.3
20260505162046 12 343 19.3 25.7 0.00 0.05 0.05 72 1009.3
20260505161558 12 11 6.4 14.5 0.00 0.05 0.05 75 1009.4
20260505161046 12 11 8.0 19.3 0.00 0.05 0.05 74 1009.5
20260505160545 13 41 12.9 19.3 0.00 0.05 0.05 74 1009.4
20260505153040 12 46 8.0 16.1 0.00 0.05 0.05 76 1009.7
20260505152540 12 37 11.3 16.1 0.00 0.05 0.05 75 1009.7
20260505152039 12 355 9.7 17.7 0.00 0.05 0.05 75 1009.7
20260505151540 12 40 9.7 17.7 0.00 0.05 0.05 75 1009.7
20260505151039 12 30 9.7 20.9 0.00 0.05 0.05 77 1009.8
20260505150539 12 26 12.9 20.9 0.00 0.05 0.05 76 1009.8
20260505140532 11 38 12.9 20.9 0.00 0.05 0.05 78 1010.2
20260505125027 11 1 12.9 24.1 0.00 0.05 0.05 80 1010.7
20260505124525 11 27 17.7 24.1 0.00 0.05 0.05 80 1010.7
20260505124024 11 25 14.5 22.5 0.00 0.05 0.05 80 1010.8
20260505123525 11 16 12.9 19.3 0.00 0.05 0.05 81 1010.8
20260505123025 11 27 12.9 19.3 0.00 0.05 0.05 80 1010.8
20260505122524 11 30 11.3 20.9 0.00 0.05 0.05 81 1010.8
20260505122024 11 27 16.1 22.5 0.00 0.05 0.05 80 1010.8
20260505121529 11 35 12.9 20.9 0.00 0.05 0.05 82 1010.8
20260505121023 11 17 14.5 20.9 0.00 0.05 0.05 81 1010.9
20260505120524 11 34 12.9 19.3 0.00 0.05 0.05 82 1010.9
20260505120051 11 28 11.3 20.9 0.00 0.05 0.05 81 1010.8
20260505115525 11 26 14.5 20.9 0.00 0.05 0.05 82 1010.8
20260505115022 11 25 16.1 20.9 0.00 0.05 0.05 81 1010.8
20260505114522 11 27 16.1 20.9 0.00 0.05 0.05 81 1010.9
20260505114021 11 34 12.9 22.5 0.00 0.05 0.05 82 1010.9
20260505113520 10 27 12.9 24.1 0.00 0.05 0.05 82 1011.0
20260505113020 10 22 17.7 24.1 0.00 0.05 0.05 81 1010.9
20260505112523 10 20 16.1 22.5 0.00 0.05 0.05 82 1011.0
20260505112019 10 33 17.7 22.5 0.00 0.05 0.05 82 1011.0
20260505111520 10 23 16.1 22.5 0.00 0.05 0.05 81 1011.1
20260505111019 10 39 11.3 24.1 0.00 0.05 0.05 83 1011.1
20260505110518 10 30 17.7 25.7 0.00 0.05 0.05 81 1011.0
20260505102019 10 23 12.9 24.1 0.00 0.05 0.05 83 1011.3
20260505101522 10 12 17.7 24.1 0.00 0.05 0.05 82 1011.4
20260505101016 10 30 19.3 27.4 0.00 0.05 0.05 82 1011.3
20260505100517 10 24 17.7 27.4 0.00 0.05 0.05 83 1011.3
20260505100022 10 11 19.3 30.6 0.00 0.05 0.05 82 1011.4
20260505095516 10 23 20.9 30.6 0.00 0.05 0.05 82 1011.4
20260505095019 10 5 16.1 29.0 0.00 0.05 0.05 83 1011.4
20260505094515 10 20 20.9 27.4 0.00 0.05 0.05 83 1011.5
20260505094014 10 13 17.7 25.7 0.00 0.05 0.05 84 1011.5
20260505093514 10 27 17.7 27.4 0.00 0.05 0.05 84 1011.5
20260505093014 10 48 16.1 27.4 0.00 0.05 0.05 85 1011.5
20260505092514 10 357 16.1 22.5 0.00 0.05 0.05 84 1011.5
20260505092014 10 20 17.7 27.4 0.00 0.05 0.05 85 1011.5
20260505091523 10 8 20.9 25.7 0.00 0.05 0.05 85 1011.5
20260505091013 10 32 12.9 22.5 0.00 0.05 0.05 85 1011.7
20260505090513 9 10 14.5 25.7 0.00 0.05 0.05 85 1011.7
20260505090029 9 19 16.1 25.7 0.00 0.05 0.05 85 1011.7
20260505085519 10 24 11.3 20.9 0.00 0.05 0.05 86 1011.8
20260505085012 9 16 12.9 22.5 0.00 0.05 0.05 86 1011.8
20260505084512 9 14 14.5 22.5 0.00 0.05 0.05 86 1011.7
20260505084015 9 12 11.3 24.1 0.00 0.05 0.05 86 1011.7
20260505083512 9 7 16.1 24.1 0.00 0.05 0.05 86 1011.6
20260505083014 9 14 19.3 24.1 0.00 0.05 0.05 86 1011.7
20260505082510 9 30 12.9 24.1 0.00 0.05 0.05 86 1011.6
20260505082011 9 16 16.1 24.1 0.00 0.05 0.05 86 1011.6
20260505081513 9 20 14.5 25.7 0.00 0.05 0.05 86 1011.6
20260505081011 9 25 16.1 24.1 0.00 0.05 0.05 86 1011.6
20260505080509 9 17 17.7 27.4 0.00 0.05 0.05 85 1011.5
20260505080010 9 8 20.9 27.4 0.00 0.05 0.05 86 1011.5
20260505075509 9 15 19.3 22.5 0.00 0.05 0.05 86 1011.5
20260505075007 9 11 14.5 25.7 0.00 0.05 0.05 86 1011.5
20260505074507 9 13 17.7 27.4 0.00 0.05 0.05 86 1011.4
20260505074006 9 17 17.7 27.4 0.00 0.05 0.05 86 1011.4
20260505073505 9 358 20.9 25.7 0.00 0.05 0.05 86 1011.5
20260505073004 9 4 19.3 25.7 0.00 0.05 0.05 87 1011.5
20260505072505 9 341 14.5 22.5 0.00 0.05 0.05 87 1011.6
20260505072002 9 13 14.5 22.5 0.00 0.05 0.05 88 1011.5
20260505071508 9 2 16.1 25.7 0.00 0.05 0.05 88 1011.4
20260505071003 9 19 16.1 24.1 0.00 0.05 0.05 88 1011.4
20260505070502 9 4 19.3 29.0 0.00 0.05 0.05 89 1011.4
20260505070104 9 30 17.7 29.0 0.00 0.05 0.05 89 1011.5
20260505065559 9 9 17.7 27.4 0.00 0.05 0.05 89 1011.5
20260505065058 9 21 16.1 25.7 0.00 0.05 0.05 90 1011.5
20260505064659 9 7 16.1 24.1 0.00 0.05 0.05 90 1011.6
20260505064055 8 3 19.3 24.1 0.00 0.05 0.05 90 1011.7
20260505063555 8 6 16.1 22.5 0.00 0.05 0.05 90 1011.6
20260505063054 8 5 16.1 20.9 0.00 0.05 0.05 90 1011.6
20260505062554 9 26 14.5 20.9 0.00 0.05 0.05 90 1011.6
20260505062053 9 20 14.5 22.5 0.00 0.05 0.05 90 1011.7
20260505061557 9 4 12.9 19.3 0.00 0.05 0.05 90 1011.7
20260505061053 9 356 11.3 19.3 0.00 0.05 0.05 90 1011.7
20260505060551 9 4 14.5 19.3 0.00 0.05 0.05 89 1011.8
20260505060051 9 17 11.3 19.3 0.00 0.05 0.05 89 1011.8
20260505055550 9 1 14.5 22.5 0.00 0.05 0.05 89 1011.7
20260505055050 9 337 16.1 22.5 0.00 0.05 0.05 89 1011.9
20260505054609 9 2 12.9 24.1 0.00 0.05 0.05 89 1011.9
20260505054051 9 10 14.5 24.1 0.00 0.05 0.05 89 1011.9
20260505053550 9 345 14.5 20.9 0.00 0.05 0.05 88 1011.9
20260505053100 9 13 16.1 22.5 0.00 0.05 0.05 88 1011.8
20260505052547 9 12 16.1 24.1 0.00 0.05 0.05 88 1011.9
20260505052047 9 357 16.1 24.1 0.00 0.05 0.05 88 1011.8
20260505051546 10 6 17.7 24.1 0.00 0.05 0.05 88 1011.7
20260505051046 10 4 17.7 22.5 0.00 0.05 0.05 87 1011.7
20260505050544 10 13 14.5 20.9 0.00 0.05 0.05 87 1011.6
20260505041540 10 351 17.7 25.7 0.00 0.05 0.05 86 1011.3
20260505041040 10 8 17.7 27.4 0.00 0.05 0.05 87 1011.2
20260505040542 10 354 20.9 27.4 0.00 0.05 0.05 86 1011.3
20260505040040 10 347 17.7 25.7 0.00 0.05 0.05 86 1011.3
20260505035539 10 354 17.7 29.0 0.00 0.05 0.05 86 1011.3
20260505035040 10 358 22.5 29.0 0.00 0.05 0.05 86 1011.2
20260505034536 10 343 22.5 29.0 0.00 0.05 0.05 86 1011.3
20260505034036 10 359 20.9 29.0 0.00 0.05 0.05 86 1011.4
20260505033536 10 18 17.7 24.1 0.00 0.05 0.05 86 1011.3
20260505033034 10 333 17.7 25.7 0.00 0.05 0.05 86 1011.4
20260505032534 10 5 20.9 27.4 0.00 0.05 0.05 86 1011.5
20260505032033 10 2 19.3 27.4 0.00 0.05 0.05 86 1011.6
20260505031543 10 342 17.7 25.7 0.00 0.05 0.05 86 1011.6
20260505031032 10 342 19.3 30.6 0.00 0.05 0.05 86 1011.6
20260505030532 10 9 19.3 30.6 0.00 0.05 0.05 86 1011.6
20260505030031 10 349 20.9 29.0 0.00 0.05 0.05 85 1011.6
20260505025530 10 4 17.7 30.6 0.00 0.05 0.05 86 1011.6
20260505025030 10 2 20.9 30.6 0.00 0.05 0.05 85 1011.5
20260505024534 10 357 19.3 29.0 0.00 0.05 0.05 85 1011.5
20260505024029 10 354 20.9 32.2 0.00 0.05 0.05 85 1011.5
20260505023529 10 353 24.1 32.2 0.00 0.05 0.05 85 1011.6
20260505023030 10 349 19.3 30.6 0.00 0.05 0.05 86 1011.5
20260505022527 10 345 19.3 30.6 0.00 0.05 0.05 86 1011.5
20260505022027 10 330 20.9 27.4 0.00 0.05 0.05 86 1011.5
20260505021528 10 345 17.7 27.4 0.00 0.05 0.05 86 1011.6
20260505021026 10 342 19.3 27.4 0.00 0.05 0.05 85 1011.5
20260505020526 10 352 19.3 27.4 0.00 0.05 0.05 85 1011.5
20260505020031 11 337 19.3 25.7 0.00 0.05 0.05 85 1011.6
20260505015524 11 340 17.7 27.4 0.00 0.05 0.05 85 1011.5
20260505015024 11 328 19.3 24.1 0.00 0.05 0.05 85 1011.6
20260505014528 11 340 17.7 29.0 0.00 0.05 0.05 85 1011.6
20260505014022 11 360 20.9 29.0 0.00 0.05 0.05 85 1011.6
20260505013521 11 7 19.3 33.8 0.00 0.05 0.05 85 1011.6
20260505013024 11 1 24.1 33.8 0.00 0.05 0.05 85 1011.7
20260505012520 11 356 22.5 33.8 0.00 0.05 0.05 85 1011.7
20260505012019 11 329 24.1 0.0 0.00 0.00 0.05 85 1011.7
20260505011529 11 340 22.5 35.4 0.00 0.05 0.05 85 1011.8
20260505011018 11 355 25.7 35.4 0.00 0.05 0.05 85 1011.8
20260505010516 11 1 24.1 30.6 0.00 0.05 0.05 85 1011.8
20260505010016 11 8 22.5 32.2 0.00 0.05 0.05 85 1011.8
20260505005515 11 354 24.1 32.2 0.00 0.05 0.05 86 1011.8
20260505005015 11 352 20.9 35.4 0.00 0.05 0.05 86 1011.9
20260505004533 11 358 25.7 37.0 0.00 0.05 0.05 86 1011.9
20260505004013 11 340 25.7 33.8 0.00 0.05 0.05 86 1011.9
20260505003511 11 342 25.7 37.0 0.00 0.05 0.05 86 1011.9
20260505003011 11 352 22.5 37.0 0.00 0.05 0.05 86 1012.0
20260505002514 11 333 25.7 37.0 0.00 0.05 0.05 86 1011.9
20260505002017 11 351 25.7 35.4 0.00 0.05 0.05 86 1011.9
20260505001509 11 353 22.5 33.8 0.03 0.05 0.05 86 1012.0
20260505001014 11 322 22.5 33.8 0.05 0.05 0.05 87 1012.0
20260505000508 11 347 27.4 33.8 0.05 0.05 0.05 87 1012.0
20260505000009 11 326 24.1 33.8 0.05 0.05 0.05 87 1012.1
20260504235508 11 351 25.7 33.8 0.05 0.05 0.05 87 1012.2
20260504235006 11 327 24.1 29.0 0.05 0.05 0.05 87 1012.2
20260504234505 11 325 19.3 33.8 0.05 0.05 0.05 88 1012.2
20260504234003 11 347 25.7 33.8 0.05 0.05 0.05 87 1012.2
20260504233503 11 340 25.7 33.8 0.05 0.05 0.05 87 1012.2
20260504233002 11 329 22.5 32.2 0.05 0.05 0.05 87 1012.3
20260504232501 11 354 24.1 32.2 0.05 0.05 0.05 87 1012.3
20260504232000 11 342 22.5 32.2 0.05 0.05 0.05 87 1012.3
20260504231602 12 345 25.7 32.2 0.03 0.05 0.03 86 1012.3
20260504231058 12 353 22.5 29.0 0.00 0.03 0.00 86 1012.3
20260504230558 12 338 22.5 30.6 0.00 0.03 0.00 86 1012.3
20260504230106 12 338 22.5 30.6 0.00 0.03 0.00 86 1012.3
20260504225556 12 339 20.9 27.4 0.00 0.03 0.00 86 1012.3
20260504225055 12 333 19.3 29.0 0.00 0.03 0.00 86 1012.4